Location: Beuerbach
(48.1459°N, 10.9174°E)
Time: 02:05:45
(UTC+00:00)

Cosmos 2181 Rocket - Pass Details

Date: 23 May 2024
Orbit: 951 x 1014 km, 82.9° (Epoch: 13 June)

Event Time Altitude Azimuth Distance (km) Brightness Sun altitude
Rises 01:48:50 0° 350° (N) 3,744 7.7 -12.9°
Reaches altitude 10° 01:51:24 10° 350° (N) 2,783 7.0 -12.6°
Maximum altitude 01:57:48 83° 264° (W) 1,003 4.0 -12.0°
Drops below altitude 10° 02:04:03 10° 176° (S) 2,721 5.9 -11.3°
Enters shadow 02:05:55 - 176° (S) 3,424 6.4 -11.1°
